DateTimeUTC,F1_A11,F1_S11,BsB_S11,BsG_S11,BsR_S11,BbsB_S11,BbsG_S11,BbsR_S11,BaB_A11,BaG_A11,BaR_A11,Tu_S11,T_S11,Uu_S11,U_S11,P_S11,T1_A11
2021-11-15T15:00:00Z,00000200,21000000,,,,,,,0000.52,-000.31,-000.12,20.1,26.9,,00.0,0626.2,31.1
2021-11-15T15:01:00Z,00000200,21000000,,,,,,,-000.20,-000.13,-000.14,20.1,26.9,,00.0,0626.2,31.1
2021-11-15T15:02:00Z,00000200,21000000,,,,,,,0000.21,0000.40,0000.29,20.1,26.9,,00.0,0626.2,31.1
2021-11-15T15:03:00Z,00000200,61000000,,,,,,,0000.39,-000.19,0000.20,20.1,26.9,,00.0,0626.2,31.1
2021-11-15T15:04:00Z,00000200,41000000,0000.72,0000.01,-000.11,0000.08,-000.06,0000.29,-000.40,0000.26,-000.08,20.3,26.8,,00.0,0627.0,31.1
2021-11-15T15:05:00Z,00000200,01000000,0000.50,0000.15,-000.29,0000.23,0000.02,0000.26,0000.37,0000.43,0000.12,20.3,26.8,,00.0,0627.1,31.1
2021-11-15T15:06:00Z,00000200,01000000,0000.42,0000.26,-000.04,-000.18,0000.14,-000.18,0000.23,-000.20,0000.35,20.4,26.8,,00.0,0627.1,31.1
2021-11-15T15:07:00Z,00000200,01000000,0001.25,0000.30,0000.06,0000.47,0000.18,-000.09,-000.25,-000.04,-000.11,20.4,26.8,,00.0,0627.2,31.1
2021-11-15T15:08:00Z,00000200,01000000,0000.45,0000.35,0000.31,0000.16,-000.13,0000.07,0000.50,0000.11,0000.26,20.4,26.8,,00.0,0627.2,31.1
2021-11-15T15:09:00Z,00000200,01000000,0000.74,0000.23,-000.13,0000.42,0000.10,0000.04,-000.08,0000.03,0000.07,20.4,26.9,,00.0,0627.2,31.1
2021-11-15T15:10:00Z,00000200,01000000,0000.54,0000.12,-000.35,0000.36,0000.09,0000.08,0000.47,0000.25,0000.41,20.4,26.8,,00.0,0627.1,31.1
2021-11-15T15:11:00Z,00000200,01000000,0000.71,-000.02,0000.27,-000.23,0000.21,0000.05,-000.26,0000.19,-000.44,20.3,26.8,,00.0,0627.1,31.1
2021-11-15T15:12:00Z,00000200,01000000,0000.93,0000.28,-000.09,0000.03,-000.14,0000.05,0000.24,-000.06,0000.23,20.2,26.8,,00.0,0627.2,31.0
2021-11-15T15:13:00Z,00000200,01000000,0000.28,-000.08,0000.03,0000.09,-000.03,0000.22,0000.14,0000.29,0000.08,20.1,26.7,,00.0,0627.1,31.0
2021-11-15T15:14:00Z,00000200,01000000,0000.37,0000.16,-000.07,0000.01,-000.12,-000.14,-000.20,-000.13,-000.20,20.0,26.7,,00.0,0627.1,31.0
2021-11-15T15:15:00Z,00000200,01000000,0001.13,0000.24,-000.01,-000.20,-000.15,0000.04,0000.21,0000.15,0000.05,19.9,26.6,,00.0,0627.1,31.0
2021-11-15T15:16:00Z,00000200,01000000,0000.92,0000.11,-000.28,0000.32,0000.12,-000.24,0000.11,0000.22,0000.10,19.8,26.6,,00.0,0627.1,31.0
2021-11-15T15:17:00Z,00000200,01000000,0000.59,0000.24,-000.29,-000.44,-000.23,0000.47,0000.20,-000.18,-000.25,19.8,26.5,,00.0,0627.1,31.0
2021-11-15T15:18:00Z,00000200,01000000,0000.50,-000.03,-000.27,0000.07,0000.14,0000.15,-000.26,0000.05,0000.27,19.7,26.5,,00.0,0627.2,31.0
2021-11-15T15:19:00Z,00000200,01000000,0000.69,0000.14,0000.34,0000.15,0000.37,0000.34,0000.24,0000.44,0000.12,19.7,26.4,,00.0,0627.2,31.0
2021-11-15T15:20:00Z,00000200,01000000,0000.20,-000.08,-000.37,-000.30,0000.10,-000.26,0000.17,-000.07,0000.15,19.7,26.4,,00.0,0627.2,31.0
2021-11-15T15:21:00Z,00000200,01000000,0000.01,0000.16,-000.12,0000.26,0000.10,0000.01,-000.06,0000.06,0000.08,19.7,26.4,,00.0,0627.2,31.0
2021-11-15T15:22:00Z,00000200,01000000,0000.53,0000.11,0000.20,-000.01,0000.17,0000.20,0000.23,0000.48,-000.06,19.8,26.4,,00.0,0627.2,31.0
2021-11-15T15:23:00Z,00000200,01000000,0000.26,0000.03,-000.32,-000.59,0000.15,-000.01,0000.51,-000.34,0000.16,19.8,26.4,,00.0,0627.2,31.0
2021-11-15T15:24:00Z,00000200,01000000,0000.39,0000.55,-000.01,0000.21,-000.04,0000.11,0000.20,0000.51,0000.11,19.9,26.4,,00.0,0627.2,31.0
2021-11-15T15:25:00Z,00000200,01000000,0000.62,0000.19,0000.00,0000.12,-000.03,0000.21,-000.56,-000.08,0000.37,19.9,26.4,,00.0,0627.2,31.0
2021-11-15T15:26:00Z,00000200,01000000,0000.73,-000.10,-000.10,-000.09,-000.07,-000.09,0000.66,0000.28,0000.20,20.0,26.4,,00.0,0627.2,31.1
2021-11-15T15:27:00Z,00000200,01000000,0000.90,0000.17,-000.20,0000.39,0000.14,0000.04,-000.28,-000.00,-000.08,20.0,26.4,,00.0,0627.2,31.0
2021-11-15T15:28:00Z,00000200,01000000,0000.31,0000.38,0000.17,0000.35,0000.14,0000.25,0000.46,0000.25,0000.26,20.1,26.5,,00.0,0627.2,31.1
2021-11-15T15:29:00Z,00000200,01000000,0000.81,0000.13,0000.19,-000.64,0000.21,-000.02,0000.20,-000.17,0000.08,20.1,26.5,,00.0,0627.2,31.1
2021-11-15T15:30:00Z,00000200,01000000,0000.27,0000.43,0000.26,0000.12,0000.11,0000.01,-000.17,0000.54,0000.32,20.1,26.5,,00.0,0627.2,31.1
2021-11-15T15:31:00Z,00000200,01000000,0000.47,0000.28,-000.08,0000.25,0000.29,0000.03,0000.66,0000.09,-000.09,20.2,26.5,,00.0,0627.3,31.1
2021-11-15T15:32:00Z,00000200,01000000,0000.13,0000.05,0000.23,0000.80,0000.08,0000.31,-000.33,0000.17,-000.28,20.1,26.5,,00.0,0627.2,31.1
2021-11-15T15:33:00Z,00000200,01000000,0000.50,0000.27,0000.18,-000.02,0000.02,0000.39,0000.24,-000.12,0000.12,20.1,26.5,,00.0,0627.2,31.1
2021-11-15T15:34:00Z,00000200,01000000,0000.89,0000.21,0000.15,0000.33,0000.05,0000.02,0000.25,0000.34,0000.50,20.1,26.5,,00.0,0627.2,31.1
2021-11-15T15:35:00Z,00000200,01000000,0000.72,0000.34,-000.00,0000.38,0000.18,0000.13,0000.18,0000.16,-000.00,20.1,26.5,,00.0,0627.1,31.1
2021-11-15T15:36:00Z,00000200,01000000,0000.59,0000.15,0000.07,0000.14,-000.00,0000.15,0000.85,0000.57,0000.46,20.1,26.5,,00.0,0627.1,31.1
2021-11-15T15:37:00Z,00000200,01000000,0000.97,0000.11,-000.05,0000.32,0000.41,0000.11,-000.25,0000.21,0000.41,20.2,26.5,,00.0,0627.1,31.1
2021-11-15T15:38:00Z,00000200,01000000,0000.80,-000.10,-000.04,-000.27,0000.14,0000.09,0000.16,-000.11,0000.09,20.2,26.5,,00.0,0627.1,31.1
2021-11-15T15:39:00Z,00000200,01000000,0000.89,0000.20,-000.15,0000.30,0000.14,-000.14,0000.15,0000.14,-000.15,20.2,26.6,,00.0,0627.2,31.1
2021-11-15T15:40:00Z,00000200,01000000,0000.72,0000.17,-000.28,0000.18,0000.33,0000.06,0000.84,0000.61,0000.40,20.3,26.6,,00.0,0627.2,31.1
2021-11-15T15:41:00Z,00000200,01000000,0000.60,0000.27,-000.27,0000.56,0000.15,0000.07,-000.68,-000.40,-000.15,20.3,26.6,,00.0,0627.2,31.1
2021-11-15T15:42:00Z,00000200,01000000,0001.24,0000.36,-000.30,0000.15,-000.00,-000.23,0000.48,0000.06,0000.03,20.3,26.6,,00.0,0627.2,31.1
2021-11-15T15:43:00Z,00000200,01000000,0001.06,-000.02,0000.36,0000.12,-000.09,0000.26,-000.67,0000.21,0000.12,20.3,26.6,,00.0,0627.2,31.1
2021-11-15T15:44:00Z,00000200,01000000,0000.30,0000.11,-000.39,0000.32,0000.26,-000.02,0000.75,0000.49,0000.27,20.2,26.6,,00.0,0627.2,31.1
2021-11-15T15:45:00Z,00000200,01000000,0000.72,0000.33,-000.00,-000.28,-000.03,0000.52,0000.03,-000.20,-000.10,20.1,26.6,,00.0,0627.2,31.0
2021-11-15T15:46:00Z,00000200,01000000,0000.81,0000.22,0000.16,-000.13,0000.34,-000.00,0000.52,-000.04,0000.00,20.0,26.5,,00.0,0627.2,31.0
2021-11-15T15:47:00Z,00000200,01000000,0000.46,0000.46,-000.18,0000.15,-000.11,-000.03,-000.22,0000.62,0000.25,19.9,26.5,,00.0,0627.2,31.0
2021-11-15T15:48:00Z,00000200,01000000,0000.92,0000.20,-000.04,0000.19,-000.14,0000.40,0000.14,-000.08,-000.26,19.9,26.4,,00.0,0627.1,31.0
2021-11-15T15:49:00Z,00000200,01000000,0000.44,-000.04,0000.40,0000.04,0000.30,0000.12,0000.50,0000.10,0000.29,19.9,26.4,,00.0,0627.1,31.0
2021-11-15T15:50:00Z,00000200,01000000,0000.84,0000.30,0000.20,-000.37,0000.48,-000.03,-000.06,0000.12,0000.64,19.9,26.4,,00.0,0627.1,31.0
2021-11-15T15:51:00Z,00000200,01000000,0000.93,0000.17,0000.07,0000.20,0000.24,-000.07,0000.35,-000.09,0000.02,19.9,26.4,,00.0,0627.2,31.0
2021-11-15T15:52:00Z,00000200,01000000,0001.18,0000.17,0000.06,0000.13,0000.01,0000.12,-000.05,0000.70,0000.01,19.9,26.4,,00.0,0627.2,31.0
2021-11-15T15:53:00Z,00000200,01000000,0000.85,-000.13,0000.16,0000.01,0000.43,0000.05,0000.41,-000.05,0000.49,20.0,26.4,,00.0,0627.2,31.0
2021-11-15T15:54:00Z,00000200,01000000,0000.73,0000.13,0000.09,0000.54,0000.25,0000.24,0000.23,0000.25,-000.27,20.0,26.4,,00.0,0627.2,31.1
2021-11-15T15:55:00Z,00000200,01000000,0001.05,0000.30,0000.01,-000.24,0000.59,0000.22,-000.27,-000.20,0000.31,20.1,26.4,,00.0,0627.2,31.1
2021-11-15T15:56:00Z,00000200,01000000,0000.42,0000.25,-000.07,-000.22,-000.01,0000.05,0000.33,0000.48,0000.15,20.1,26.4,,00.0,0627.2,31.1
2021-11-15T15:57:00Z,00000200,41000000,,,,,,,-000.19,-000.11,0000.06,20.2,26.5,,00.0,0627.2,31.1
2021-11-15T15:58:00Z,00000200,61000000,,,,,,,0000.11,0000.31,0000.17,19.9,26.6,,00.0,0626.4,31.1
2021-11-15T15:59:00Z,00000200,21000000,,,,,,,0000.51,-000.23,-000.13,19.9,26.7,,00.0,0626.4,31.1
